When you browse on this site, cookies collect data to enhance your experience and personalize the content and advertising you see.
Visit our Privacy Policy to learn more. By continuing to use the site, you agree to this use of cookies and data.
  • En España
  • Lista de países
  • Para 7 días
  • Temperatura del agua
  • El tiempo en el mapa
  • Informadores
  • user-avatar
    Iniciar sesión

    Tiempo cada hora Palermo

    Hoy, 7 Junio, Domingo

    Tiempo Temperatura Precipitaciones Viento Presión Humedad
    00:00 +19°C° 0 mm 2 mps 756 mmHg 65%
    01:00 +19°C° 0 mm 2 mps 756 mmHg 63%
    02:00 +20°C° 0 mm 2 mps 756 mmHg 61%
    03:00 +21°C° 0 mm 1 mps 756 mmHg 58%
    04:00 +21°C° 0 mm 1 mps 756 mmHg 56%
    05:00 +22°C° 0 mm 1 mps 756 mmHg 54%
    06:00 +23°C° 0 mm 1 mps 756 mmHg 52%
    07:00 +24°C° 0 mm 2 mps 756 mmHg 50%
    08:00 +26°C° 0 mm 2 mps 756 mmHg 45%
    09:00 +28°C° 0 mm 2 mps 756 mmHg 40%
    10:00 +30°C° 0 mm 2 mps 757 mmHg 35%
    11:00 +30°C° 0 mm 2 mps 757 mmHg 35%
    12:00 +30°C° 0 mm 2 mps 757 mmHg 36%
    13:00 +30°C° 0 mm 3 mps 757 mmHg 37%
    14:00 +30°C° 0 mm 3 mps 756 mmHg 39%
    15:00 +30°C° 0 mm 4 mps 756 mmHg 41%
    16:00 +30°C° 0 mm 4 mps 755 mmHg 43%
    17:00 +28°C° 0 mm 4 mps 755 mmHg 51%
    18:00 +26°C° 0 mm 3 mps 755 mmHg 59%
    19:00 +25°C° 0 mm 2 mps 755 mmHg 67%
    20:00 +24°C° 0.1 mm 2 mps 755 mmHg 67%
    21:00 +24°C° 0.1 mm 2 mps 755 mmHg 67%
    22:00 +23°C° 0.1 mm 2 mps 756 mmHg 67%
    23:00 +23°C° 0.1 mm 1 mps 755 mmHg 69%

    Mañana, 8 Junio, Lunes

    Tiempo Temperatura Precipitaciones Viento Presión Humedad
    00:00 +23°C° 0.1 mm 1 mps 755 mmHg 71%
    01:00 +22°C° 0.1 mm 1 mps 755 mmHg 72%
    02:00 +22°C° 0.1 mm 1 mps 755 mmHg 71%
    03:00 +22°C° 0.1 mm 1 mps 755 mmHg 70%
    04:00 +21°C° 0.1 mm 2 mps 755 mmHg 68%
    05:00 +24°C° 0 mm 1 mps 754 mmHg 64%
    06:00 +25°C° 0 mm 1 mps 754 mmHg 60%
    07:00 +26°C° 0 mm 1 mps 754 mmHg 55%
    08:00 +27°C° 0 mm 2 mps 755 mmHg 52%
    09:00 +28°C° 0 mm 2 mps 755 mmHg 49%
    10:00 +29°C° 0 mm 3 mps 755 mmHg 45%
    11:00 +29°C° 0 mm 3 mps 755 mmHg 48%
    12:00 +29°C° 0 mm 3 mps 755 mmHg 50%
    13:00 +29°C° 0 mm 3 mps 755 mmHg 52%
    14:00 +29°C° 0 mm 3 mps 754 mmHg 53%
    15:00 +29°C° 0 mm 3 mps 754 mmHg 54%
    16:00 +29°C° 0 mm 2 mps 754 mmHg 55%
    17:00 +27°C° 0 mm 2 mps 754 mmHg 61%
    18:00 +26°C° 0 mm 2 mps 754 mmHg 68%
    19:00 +25°C° 0 mm 2 mps 754 mmHg 74%
    20:00 +24°C° 0 mm 1 mps 754 mmHg 75%
    21:00 +23°C° 0 mm 1 mps 755 mmHg 77%
    22:00 +23°C° 0 mm 1 mps 755 mmHg 78%
    23:00 +22°C° 0 mm 1 mps 755 mmHg 79%

    Pasado mañana, 9 Junio, Martes

    Tiempo Temperatura Precipitaciones Viento Presión Humedad
    00:00 +22°C° 0 mm 1 mps 755 mmHg 80%
    01:00 +21°C° 0 mm 1 mps 755 mmHg 80%
    02:00 +21°C° 0 mm 1 mps 755 mmHg 80%
    03:00 +21°C° 0 mm 1 mps 755 mmHg 80%
    04:00 +21°C° 0 mm 1 mps 755 mmHg 79%
    05:00 +22°C° 0 mm 1 mps 755 mmHg 72%
    06:00 +24°C° 0 mm 1 mps 755 mmHg 65%
    07:00 +25°C° 0 mm 1 mps 755 mmHg 57%
    08:00 +27°C° 0 mm 1 mps 756 mmHg 53%
    09:00 +28°C° 0 mm 2 mps 756 mmHg 49%
    10:00 +29°C° 0 mm 3 mps 756 mmHg 46%
    11:00 +29°C° 0 mm 3 mps 756 mmHg 47%
    12:00 +29°C° 0 mm 4 mps 757 mmHg 48%
    13:00 +30°C° 0 mm 4 mps 757 mmHg 49%
    14:00 +29°C° 0 mm 4 mps 756 mmHg 50%
    15:00 +28°C° 0 mm 4 mps 756 mmHg 52%
    16:00 +28°C° 0 mm 4 mps 756 mmHg 54%
    17:00 +27°C° 0 mm 3 mps 756 mmHg 59%
    18:00 +25°C° 0 mm 3 mps 756 mmHg 65%
    19:00 +24°C° 0 mm 2 mps 756 mmHg 70%
    20:00 +23°C° 0 mm 2 mps 757 mmHg 74%
    21:00 +21°C° 0 mm 2 mps 757 mmHg 78%
    22:00 +21°C° 0 mm 1 mps 758 mmHg 82%
    23:00 +21°C° 0 mm 1 mps 758 mmHg 84%

    10 Junio, Miércoles

    Tiempo Temperatura Precipitaciones Viento Presión Humedad
    00:00 +20°C° 0 mm 1 mps 758 mmHg 86%
    01:00 +20°C° 0 mm 1 mps 758 mmHg 87%
    02:00 +20°C° 0 mm 1 mps 758 mmHg 87%
    03:00 +20°C° 0 mm 1 mps 758 mmHg 87%
    04:00 +20°C° 0 mm 1 mps 757 mmHg 86%
    05:00 +21°C° 0 mm 1 mps 758 mmHg 80%
    06:00 +22°C° 0 mm 1 mps 758 mmHg 73%
    07:00 +24°C° 0 mm 1 mps 758 mmHg 66%
    08:00 +25°C° 0 mm 2 mps 758 mmHg 61%
    09:00 +26°C° 0 mm 2 mps 758 mmHg 56%
    10:00 +27°C° 0 mm 3 mps 758 mmHg 51%
    11:00 +27°C° 0 mm 3 mps 758 mmHg 49%
    12:00 +27°C° 0 mm 3 mps 758 mmHg 48%
    13:00 +28°C° 0 mm 4 mps 758 mmHg 46%
    14:00 +27°C° 0 mm 4 mps 758 mmHg 46%
    15:00 +27°C° 0 mm 4 mps 758 mmHg 47%
    16:00 +27°C° 0 mm 4 mps 758 mmHg 47%
    17:00 +25°C° 0 mm 3 mps 758 mmHg 54%
    18:00 +24°C° 0 mm 3 mps 758 mmHg 62%
    19:00 +22°C° 0 mm 3 mps 758 mmHg 70%
    20:00 +21°C° 0 mm 3 mps 758 mmHg 75%
    21:00 +20°C° 0 mm 3 mps 758 mmHg 81%
    22:00 +19°C° 0 mm 2 mps 758 mmHg 87%
    23:00 +18°C° 0 mm 2 mps 758 mmHg 86%

    11 Junio, Jueves

    Tiempo Temperatura Precipitaciones Viento Presión Humedad
    00:00 +18°C° 0 mm 3 mps 758 mmHg 85%
    01:00 +18°C° 0 mm 3 mps 758 mmHg 84%
    02:00 +18°C° 0 mm 3 mps 757 mmHg 79%
    03:00 +18°C° 0 mm 2 mps 757 mmHg 75%
    04:00 +18°C° 0 mm 2 mps 757 mmHg 71%
    05:00 +19°C° 0 mm 3 mps 757 mmHg 67%
    06:00 +20°C° 0 mm 3 mps 757 mmHg 64%
    07:00 +22°C° 0 mm 3 mps 757 mmHg 60%
    08:00 +23°C° 0 mm 4 mps 757 mmHg 57%
    09:00 +25°C° 0 mm 4 mps 757 mmHg 53%
    10:00 +25°C° 0 mm 5 mps 757 mmHg 50%
    11:00 +26°C° 0 mm 5 mps 757 mmHg 49%
    12:00 +26°C° 0 mm 5 mps 757 mmHg 48%
    13:00 +27°C° 0 mm 5 mps 757 mmHg 48%
    14:00 +26°C° 0 mm 5 mps 756 mmHg 49%
    15:00 +26°C° 0 mm 5 mps 756 mmHg 50%
    16:00 +26°C° 0 mm 6 mps 756 mmHg 51%
    17:00 +25°C° 0 mm 5 mps 756 mmHg 57%
    18:00 +22°C° 0 mm 4 mps 756 mmHg 62%
    19:00 +21°C° 0 mm 4 mps 756 mmHg 68%
    20:00 +20°C° 0 mm 3 mps 756 mmHg 72%
    21:00 +19°C° 0 mm 3 mps 756 mmHg 77%
    22:00 +18°C° 0 mm 3 mps 756 mmHg 81%
    23:00 +18°C° 0 mm 3 mps 756 mmHg 80%

    12 Junio, Viernes

    Tiempo Temperatura Precipitaciones Viento Presión Humedad
    00:00 +18°C° 0 mm 3 mps 756 mmHg 78%
    01:00 +18°C° 0 mm 3 mps 756 mmHg 76%
    02:00 +18°C° 0 mm 3 mps 756 mmHg 74%
    03:00 +18°C° 0 mm 3 mps 756 mmHg 72%
    04:00 +18°C° 0 mm 3 mps 755 mmHg 70%
    05:00 +20°C° 0 mm 3 mps 756 mmHg 66%
    06:00 +21°C° 0 mm 3 mps 756 mmHg 62%
    07:00 +24°C° 0 mm 2 mps 756 mmHg 58%
    08:00 +25°C° 0 mm 3 mps 756 mmHg 53%
    09:00 +26°C° 0 mm 4 mps 757 mmHg 49%
    10:00 +27°C° 0 mm 4 mps 757 mmHg 44%
    11:00 +28°C° 0 mm 4 mps 757 mmHg 45%
    12:00 +28°C° 0 mm 4 mps 757 mmHg 46%
    13:00 +28°C° 0 mm 3 mps 757 mmHg 47%
    14:00 +28°C° 0 mm 3 mps 757 mmHg 47%
    15:00 +27°C° 0 mm 3 mps 757 mmHg 48%
    16:00 +27°C° 0 mm 2 mps 756 mmHg 49%
    17:00 +26°C° 0 mm 2 mps 757 mmHg 54%
    18:00 +24°C° 0 mm 2 mps 757 mmHg 59%
    19:00 +23°C° 0 mm 2 mps 757 mmHg 64%
    20:00 +21°C° 0 mm 2 mps 757 mmHg 67%
    21:00 +22°C° 0 mm 1 mps 757 mmHg 69%
    22:00 +21°C° 0 mm 1 mps 758 mmHg 71%
    23:00 +21°C° 0 mm 1 mps 757 mmHg 67%
    Mostrar más